Hourly Data Report for October 31, 2016

All times are specified in Local Standard Time (LST). Add 1 hour to adjust for Daylight Saving Time where and when it is observed.

SAINT JOHN A
NEW BRUNSWICK

45°18'58.000" N
65°53'24.000" W
108.80 m
8104901
71609
YSJ

Download Data

Hourly Data (October 2016)
Hourly Data Report for October 31, 2016
Temp Definition
°C
Dew Point Temp Definition
°C
Rel Hum Definition
%
Wind Dir Definition
10's deg

Wind Spd Definition
km/h
Visibility Definition
km
Stn Press Definition
kPa
Hmdx Definition


Wind Chill Definition


Weather Definition


TIME
00:00 Legend Double Dagger 5.4 5.4 100 35 7 24.1 99.73     LegendNANA
01:00 Legend Double Dagger 5.4 5.4 100 35 12 24.1 99.70     LegendNANA
02:00 Legend Double Dagger 5.6 5.6 100 33 9 24.1 99.73     Mostly Cloudy
03:00 Legend Double Dagger 5.6 5.6 100 35 7 24.1 99.73     LegendNANA
04:00 Legend Double Dagger 5.6 5.6 100 35 10 24.1 99.73     LegendNANA
05:00 Legend Double Dagger 5.4 5.4 100 34 12 19.3 99.76     Cloudy
06:00 Legend Double Dagger 5.3 5.3 100 34 17 19.3 99.78     LegendNANA
07:00 Legend Double Dagger 4.8 4.8 100 35 18 3.2 99.85     Fog
08:00 Legend Double Dagger 4.7 4.7 100 35 21 4.8 99.95     Fog
09:00 Legend Double Dagger 5.0 5.0 100 35 17 6.4 100.01     Fog
10:00 Legend Double Dagger 5.5 5.2 98 35 17 16.1 100.05     LegendNANA
11:00 Legend Double Dagger 6.0 3.7 85 35 25 19.3 100.11     Cloudy
12:00 Legend Double Dagger 6.7 3.3 79 36 26 24.1 100.12     LegendNANA
13:00 Legend Double Dagger 6.5 3.3 80 36 19 24.1 100.14     LegendNANA
14:00 Legend Double Dagger 7.2 2.9 74 36 20 24.1 100.17     Cloudy
15:00 Legend Double Dagger 7.1 2.2 71 35 25 24.1 100.25     LegendNANA
16:00 Legend Double Dagger 7.0 2.3 72 35 15 24.1 100.34     LegendNANA
17:00 Legend Double Dagger 6.7 2.2 73 33 22 24.1 100.42     Cloudy
18:00 Legend Double Dagger 5.7 2.9 82 34 16 24.1 100.54     LegendNANA
19:00 Legend Double Dagger 5.6 3.1 84 35 17 24.1 100.64     LegendNANA
20:00 Legend Double Dagger 5.4 3.4 87 36 13 24.1 100.73     Cloudy
21:00 Legend Double Dagger 4.9 3.6 91 35 22 24.1 100.78     LegendNANA
22:00 Legend Double Dagger 5.0 4.3 95 35 25 24.1 100.84     LegendNANA
23:00 Legend Double Dagger 4.9 4.9 100 34 24 24.1 100.90     Cloudy

Notes on Data Quality.

Legend

  • E = Estimated
  • M = Missing
  • NA = Not Available
  • ‡ = Partner data that is not subject to review by the National Climate Archives
Date modified: